Regional Weather Roundup
Issued by NWS

Home | Current Version | Previous Version | Graphics & Text | Print | Product List | Glossary Off
Versions: 1 2 3 4 5 6 7 8 9 10 11 12 13 14 15 16 17 18 19 20 21 22 23 24 25 26 27 28 29 30 31 32 33 34 35 36 37 38 39 40 41 42 43 44 45 46 47 48 49 50

200
ASUS43 KIND 180609
RWRIN

WEATHER ROUNDUP FOR INDIANA
NATIONAL WEATHER SERVICE INDIANAPOLIS IN
100 AM EST SAT NOV 18 2017

NOTE: "FAIR" INDICATES FEW OR NO CLOUDS BELOW 12,000 FEET WITH NO
SIGNIFICANT WEATHER AND/OR OBSTRUCTIONS TO VISIBILITY.

* - STATION DOES NOT REPORT WEATHER SUCH AS PRECIPITATION OR FOG.

+ - STATION NOT QUALITY CONTROLLED BY THE NATIONAL WEATHER SERVICE.
    USE DATA WITH CAUTION...ESPECIALLY DEWPOINT AND RELATIVE
    HUMIDITY OBSERVATIONS.

INZ001>003-010>013-019-020-180700-
NORTHWEST INDIANA

CITY           SKY/WX    TMP DP  RH WIND       PRES   REMARKS
GARY /AIRPORT/ DRIZZLE   48  46  90 S6        29.58F
KNOX *+        CLOUDY    45  41  87 CALM      29.60F
LA PORTE +     DRIZZLE   42  41  95 S6        29.59F
6HR MIN TEMP:  40; 6HR MAX TEMP:  44;

MICHIGAN CITY+ DRIZZLE   43  43 100 S9        29.58F
MONTICELLO +   CLOUDY    47  44  91 S10G16    29.59F
6HR MIN TEMP:  43; 6HR MAX TEMP:  47; 6HR PCP:  0.03;

RENSSELAER +   CLOUDY    50  41  71 S16       29.58F
VALPARAISO     LGT RAIN  46  43  89 SE5       29.59F FOG
6HR MIN TEMP:  43; 6HR MAX TEMP:  46; 6HR PCP:  0.45;


$$

LMZ046-743>745-180700-
SOUTHERN LAKE MICHIGAN

STATION/POSITION TIME  TEMP    WIND        PRES    WAVE
                       AIR SEA DIR/SP/G            HT
                 (UTC) (F)     (DEG/KT/KT) (MB)    (FT)
BURNS HARBOR     0540   46     200/ 11/ 15 1002.4F
MICHIGAN CITY    0540   44     170/ 10/ 14   N/A

$$

INZ004-005-014>016-021>024-180700-
NORTH CENTRAL INDIANA

CITY           SKY/WX    TMP DP  RH WIND       PRES   REMARKS
GOSHEN         LGT RAIN  44  39  82 S8        29.62F
6HR MIN TEMP:  42; 6HR MAX TEMP:  46; 6HR PCP:  0.29;

LOGANSPORT +   RAIN      45  43  93 S12       29.62F
ROCHESTER +    CLOUDY    48  43  81 S10G17    29.60F
SOUTH BEND     LGT RAIN  43  43 100 S13       29.60F
6HR MIN TEMP:  41; 6HR MAX TEMP:  45; 6HR PCP:  0.55;

WARSAW +       CLOUDY    43  41  93 S5        29.61F

$$

INZ006>009-017-018-025>027-180700-
NORTHEAST INDIANA

CITY           SKY/WX    TMP DP  RH WIND       PRES   REMARKS
AUBURN +       CLOUDY    43  41  93 S5        29.65F
FORT WAYNE     CLOUDY    47  43  86 S13       29.64F
6HR MIN TEMP:  44; 6HR MAX TEMP:  48; 6HR PCP:  0.29;

HUNTINGTON +   CLOUDY    47  43  87 S8        29.62F
6HR MIN TEMP:  42; 6HR MAX TEMP:  47; 6HR PCP:  0.21;

KENDALLVILLE + CLOUDY    42  41  96 S7        29.62F

$$

INZ028-029-035-036-043>045-051>053-180700-
WEST CENTRAL INDIANA

CITY           SKY/WX    TMP DP  RH WIND       PRES   REMARKS
CRAWFORDSVL +  CLOUDY    52  43  71 S18G30    29.62F
6HR MIN TEMP:  44; 6HR MAX TEMP:  51; 6HR PCP:  0.02;

GREENCASTLE +  CLOUDY    55  41  58 S13G22    29.65F
LAFAYETTE      CLOUDY    51  44  77 S6        29.60F
6HR MIN TEMP:  43; 6HR MAX TEMP:  51; 6HR PCP:  0.11;

TERRE HAUTE    CLOUDY    57  42  57 S16G24    29.64F
6HR MIN TEMP:  49; 6HR MAX TEMP:  57; 6HR PCP: TRACE;


$$

INZ030>032-037>040-046>048-054>057-064-065-180700-
CENTRAL INDIANA

CITY           SKY/WX    TMP DP  RH WIND       PRES   REMARKS
CP ATTERBURY + CLOUDY    48  41  76 SE6       29.69F
FRANKFORT +    CLOUDY    51  45  79 S10       29.62F
6HR MIN TEMP:  46; 6HR MAX TEMP:  51; 6HR PCP:  0.15;

GREENWOOD *+   CLOUDY    53  44  71 S9        29.67F
6HR MIN TEMP:  48; 6HR MAX TEMP:  53;

INDIANAPOLIS   CLOUDY    51  43  74 S9        29.66F
6HR MIN TEMP:  45; 6HR MAX TEMP:  51; 6HR PCP:  0.04;

-EAGLE CREEK   CLOUDY    51  42  71 S8        29.64F
6HR MIN TEMP:  47; 6HR MAX TEMP:  51; 6HR PCP:  0.09;

KOKOMO +       CLOUDY    47  42  83 S16       29.62F
6HR MIN TEMP:  43; 6HR MAX TEMP:  47; 6HR PCP:  0.17;

MARION +       CLOUDY    47  41  81 S23       29.64F HAZE
MT COMFORT *+  CLOUDY    46  45  93 S14       29.66F
SHELBYVILLE    CLOUDY    50  40  68 S14       29.67F
6HR MIN TEMP:  47; 6HR MAX TEMP:  51; 6HR PCP:  0.06;

ZIONSVILLE +   CLOUDY    46  43  86 S13       29.64F
6HR MIN TEMP:  44; 6HR MAX TEMP:  47; 6HR PCP:  0.02;


$$

INZ033-034-041-042-049-050-058-059-180700-
EAST CENTRAL INDIANA

CITY           SKY/WX    TMP DP  RH WIND       PRES   REMARKS
MUNCIE         CLOUDY    50  41  71 S14G23    29.65F
6HR MIN TEMP:  47; 6HR MAX TEMP:  50; 6HR PCP:  0.15;

RICHMOND +     CLOUDY    45  41  87 S18       29.70F

$$

INZ060-061-067>069-081>083-085>088-180700-
SOUTHWEST INDIANA

CITY           SKY/WX    TMP DP  RH WIND       PRES   REMARKS
EVANSVILLE     CLOUDY    60  45  57 S10G20    29.72F
6HR MIN TEMP:  51; 6HR MAX TEMP:  60; 6HR PCP: TRACE;

HUNTINGBURG +  CLOUDY    60  45  57 S18G25    29.72F
6HR MIN TEMP:  50; 6HR MAX TEMP:  60; 6HR PCP: TRACE;

WASHINGTON +   CLOUDY    59  40  50 S21G28    29.67F
6HR MIN TEMP:  48; 6HR MAX TEMP:  59;


$$

INZ062-063-066-070>080-084-089>092-180700-
SOUTH CENTRAL AND SOUTHEAST INDIANA

CITY           SKY/WX    TMP DP  RH WIND       PRES   REMARKS
BEDFORD +      LGT RAIN  54  41  62 S6        29.69F
BLOOMINGTON    CLOUDY    60  44  55 S18G24    29.67F
6HR MIN TEMP:  47; 6HR MAX TEMP:  60; 6HR PCP: TRACE;

MADISON *+     CLOUDY    54  36  50 S12G20    29.76F
NORTH VERNON + CLOUDY    50  39  66 S14G21    29.72F
SEYMOUR +      CLOUDY    54  41  62 S13       29.71F

$$





USA.gov is the U.S. government's official web portal to all federal, state and local government web resources and services.